Regional Weather Roundup
Issued by NWS

Home | Current Version | Previous Version | Graphics & Text | Print | Product List | Glossary Off
Versions: 1 2 3 4 5 6 7 8 9 10 11 12 13 14 15 16 17 18 19 20 21 22 23 24 25 26 27 28 29 30 31 32 33 34 35 36 37 38 39 40 41 42 43 44 45 46 47 48 49 50

000
ASUS43 KDMX 260907
RWRIA

WEATHER ROUNDUP FOR IOWA
NATIONAL WEATHER SERVICE DES MOINES IA
300 AM CST WED NOV 26 2014

NOTE: "FAIR" INDICATES FEW OR NO CLOUDS BELOW 12,000 FEET WITH NO
SIGNIFICANT WEATHER AND/OR OBSTRUCTIONS TO VISIBILITY.

* - THESE STATIONS ARE NOT NWS STATIONS...THUS NOT UNDER NWS
QUALITY CONTROL.  THEY ALSO DO NOT REPORT WEATHER SUCH
AS PRECIPITATION OR FOG.

IAZ001>003-012>014-020>022-031>034-043>046-261000-
   NORTHWEST IOWA

CITY           SKY/WX    TMP DP  RH WIND       PRES   REMARKS
CARROLL *      LGT SNOW  30  30 100 SE10      29.85S WCI  21
CHEROKEE *     FLURRIES  32  32 100 SE9       29.83S WCI  24
DENISON *      CLOUDY    32  32 100 S12       29.81S WCI  23
LE MARS *      CLOUDY    34  34 100 CALM      29.84R FOG
ORANGE CITY *  LGT SNOW  34  30  86 CALM      29.82R
SHELDON *      LGT SNOW  28  28 100 E8        29.83R WCI  20
SIOUX CITY     CLOUDY    35  33  92 NW7       29.84R WCI  29
SPENCER        LGT SNOW  28  25  88 SE12      29.86S FOG     WCI  18
STORM LAKE *   CLOUDY    30  28  93 SE14      29.84R FOG     WCI  20
$$

IAZ055>058-069>071-079>083-090>094-261000-
   SOUTHWEST IOWA

CITY           SKY/WX    TMP DP  RH WIND       PRES   REMARKS
ATLANTIC *     LGT SNOW  34  32  93 S15       29.83F WCI  24
AUDUBON *      LGT SNOW  32  27  80 SE7       29.84F VSB 1   WCI  26
CLARINDA *     LGT SNOW  34  34 100 S20G33    29.87F WCI  22
COUNCIL BLFS * CLOUDY    34  34 100 W7        29.82R WCI  28
CRESTON *      LGT SNOW  30  30 100 S14G21    29.87F VSB 3/4 WCI  20
HARLAN  *      LGT SNOW  32  32 100 S8        29.85F WCI  25
LAMONI         FLURRIES  30  26  85 SE13      29.91F WCI  20
RED OAK *      FLURRIES  34  34 100 S7        29.84F WCI  28
SHENANDOAH *   CLOUDY    36  34  93 S17       29.85F WCI  25
$$

IAZ047>049-059>061-072>074-084-261000-
   CENTRAL IOWA

CITY           SKY/WX    TMP DP  RH WIND       PRES   REMARKS
AMES           LGT SNOW  27  22  81 SE12      29.95S WCI  17
ANKENY *       CLOUDY    28  25  86 SE8       29.95F FOG     WCI  20
CHARITON *     MIX PCPN  32  21  64 S15       29.95F WCI  22
DES MOINES     LGT SNOW  30  27  88 SE10      29.94F FOG     WCI  21
GRINNELL*      CLOUDY    27  21  80 SE9       29.99R WCI  17
KNOXVILLE *    MOCLDY    30  18  59 SE6       29.96S WCI  24
MARSHALLTOWN   CLOUDY    27  20  75 SE14      29.97S WCI  16
PELLA *        CLOUDY    28  21  74 SE7       30.00R WCI  21
PERRY *        LGT SNOW  30  30 100 SE14      29.89F WCI  20
$$

IAZ004>006-015-016-023>025-035-036-261000-
   NORTH CENTRAL IOWA

CITY           SKY/WX    TMP DP  RH WIND       PRES   REMARKS
ALGONA *       LGT SNOW  27  27 100 SE16      29.89F VSB 3/4 WCI  14
CLARION *      LGT SNOW  27  27 100 SE16G22   29.93F VSB 3/4 WCI  14
ESTHERVILLE    LGT SNOW  26  24  92 SE14      29.87S VSB 1   WCI  14
FORT DODGE *   CLOUDY    27  21  80 SE13G18   29.90F WCI  16
MASON CITY     CLOUDY    25  20  81 SE14      29.97F WCI  13
FOREST CITY *  LGT SNOW  27  23  86 SE10      29.94F WCI  17
IOWA FALLS *   CLOUDY    27  21  80 SE15      29.96S WCI  15
$$

IAZ007>011-017>019-026>030-037>042-050>054-066-261000-
   NORTHEAST IOWA

CITY           SKY/WX    TMP DP  RH WIND       PRES   REMARKS
CEDAR RAPIDS   MOCLDY    21  19  92 E9        30.03F WCI  11
CHARLES CITY * CLOUDY    23  19  86 SE12      30.00F WCI  12
CLINTON *      PTCLDY    12   9  85 E9        30.13F WCI   0
DECORAH *      CLOUDY    19  16  86 SE7       30.03S WCI  10
DUBUQUE        MOCLDY    16  14  92 SE6       30.08F WCI   7
MONTICELLO *   CLEAR     19  18  93 E10       30.07F WCI   8
OELWEIN *      MOCLDY    21  18  86 SE12      30.02F WCI   9
WATERLOO       CLOUDY    22  19  89 SE10      30.00F WCI  11
$$

IAZ064-065-067-068-078-261000-
   EAST CENTRAL IOWA

CITY           SKY/WX    TMP DP  RH WIND       PRES   REMARKS
DAVENPORT      PTCLDY    17  13  84 E8        30.10F WCI   7
IOWA CITY      MOCLDY    22  19  89 E6        30.07F WCI  14
MT. PLEASANT * PTCLDY    23  21  93 SE8       30.05S WCI  14
MUSCATINE *    CLEAR     19  18  93 E3        30.09F
QUAD CITIES    PTCLDY    14  10  84 E8        30.10F WCI   3
$$

IAZ062-063-075>077-085>089-095>099-261000-
   SOUTHEAST IOWA

CITY           SKY/WX    TMP DP  RH WIND       PRES   REMARKS
BURLINGTON     PTCLDY    24  21  88 SE7       30.06F WCI  16
FAIRFIELD *    CLOUDY    27  21  80 SE9       30.02S WCI  17
FORT MADISON * CLEAR     28  25  86 SE7       30.06S WCI  21
KEOKUK *       PTCLDY    27  23  86 SE7       30.05S WCI  19
OSKALOOSA *      N/A     25  21  86 SE12      30.00S WCI  14
CENTERVILLE *  MOCLDY    30  19  64 SE6       29.99F WCI  24
OTTUMWA        MOCLDY    28  19  69 SE13      29.99S WCI  17
WASHINGTON *   MOCLDY    23  23 100 SE10      30.04S WCI  12
$$

ABBREVIATIONS USED IN REMARKS
   TC - TEMPERATURES IN CELSIUS
  WCI - WIND CHILL INDEX
   HX - HEAT INDEX
  VSB - VISIBILITY
$$




USA.gov is the U.S. government's official web portal to all federal, state and local government web resources and services.